Dewpoint
60 59 56 53 50 46 43 38 32 29 27 26 24 23 25 25 27 32 43 52 50 51 52 53 53 53 53 54 54 54 54 55 55 56 57 58 58 57 57 58 58 60 61
61 55 50 47 43 38 31 29 29 28 26 24 22 21 23 25 27 31 36 42 45 47 47 47 47 47 47 48 49 49 50 50 51 52 52 53 54 55 55 55 56 58 58
56 50 44 41 37 33 30 29 25 26 26 23 23 23 23 24 27 29 33 35 41 44 41 42 42 42 43 44 45 45 46 47 47 48 49 49 50 51 51 53 53 54 55
51 45 41 39 34 32 30 28 26 27 27 25 24 22 23 26 25 26 30 29 33 29 39 36 36 37 38 42 44 45 45 45 45 46 47 48 48 50 51 52 51 51 52
43 37 38 35 31 31 30 27 28 27 26 26 23 23 30 31 28 23 25 27 30 31 32 38 35 36 32 35 40 43 45 44 45 45 46 46 47 48 51 51 50 51 52
38 40 35 32 31 31 29 29 28 27 26 24 17 21 33 34 32 30 30 19 25 27 29 31 29 30 35 32 36 38 42 43 43 44 45 45 46 47 49 50 50 51 51
38 38 35 32 32 31 30 28 28 27 26 25 27 28 30 25 31 33 23 23 25 22 24 24 26 26 25 32 32 35 39 41 43 44 45 46 46 47 47 48 49 50 50
37 36 35 33 32 32 30 29 30 26 26 26 22 29 27 25 25 22 25 22 21 24 23 23 24 23 26 26 30 33 35 39 42 44 44 45 46 47 47 48 49 49 49
35 34 34 32 33 33 31 29 28 26 26 27 24 23 23 24 21 26 26 23 23 22 22 25 23 23 23 24 27 28 31 35 40 43 44 45 45 46 47 48 48 48 48
33 32 31 31 30 30 29 25 23 25 27 25 26 17 20 19 18 19 25 23 22 18 22 24 22 21 22 23 27 29 31 35 39 42 44 45 45 46 47 47 47 47 47
32 30 28 30 28 27 27 26 25 23 23 23 24 23 21 22 21 20 20 22 22 23 23 22 21 20 21 23 25 28 31 34 38 41 43 44 44 45 45 45 45 45 45
30 27 27 27 27 26 26 27 27 26 24 23 23 22 22 21 21 22 21 20 20 22 21 20 20 21 22 22 24 29 30 34 37 39 41 42 42 42 43 44 43 44 44
27 26 26 24 25 26 26 25 26 25 23 23 22 21 21 21 21 21 22 21 21 21 19 17 17 18 15 22 22 28 30 32 34 37 40 41 40 39 39 40 41 41 41
26 25 24 23 22 21 22 23 24 25 22 24 25 25 24 23 24 23 22 22 20 19 18 15 17 17 20 20 24 29 24 30 32 34 36 37 36 36 36 38 38 38 39
24 22 22 20 20 19 20 21 21 19 20 22 23 24 24 24 24 24 23 23 21 18 17 17 17 20 20 20 23 22 22 28 31 33 33 34 33 34 34 35 35 36 37
21 21 20 20 19 19 18 19 19 18 18 22 22 21 22 22 22 23 23 22 22 20 18 19 19 19 20 19 23 22 23 29 30 31 32 32 32 31 32 33 34 35 36
20 19 18 18 17 17 16 16 16 18 19 20 21 23 22 22 21 20 21 21 20 21 19 19 20 21 21 21 21 24 27 24 24 29 29 29 29 30 32 33 34 34 35
17 17 16 16 16 16 14 13 15 17 19 19 20 24 23 16 18 18 19 18 19 19 21 20 21 22 22 21 24 27 24 21 20 23 28 29 30 31 31 32 32 33 33
16 16 17 17 15 16 14 13 14 16 18 19 20 19 19 18 16 17 19 20 22 21 22 22 21 22 23 28 28 23 21 20 17 25 27 29 30 31 31 31 32 32 32
17 18 17 16 15 14 14 14 17 19 20 21 21 21 19 19 18 19 21 22 22 23 23 22 23 26 29 26 23 20 18 20 21 21 25 27 29 29 30 30 30 30 30
17 17 16 15 15 14 11 20 22 22 21 20 20 18 19 22 24 25 24 25 24 23 25 27 27 29 23 20 18 19 19 22 23 25 22 22 22 22 23 27 27 28 29
17 16 15 14 15 11 21 24 25 22 20 19 18 17 19 24 23 25 27 26 25 26 28 29 27 21 20 17 19 22 24 26 20 22 21 21 22 22 23 23 27 28 29
16 15 13 13 12 13 20 24 26 22 20 20 22 22 21 18 24 22 24 26 28 30 30 23 20 18 18 20 25 26 25 22 21 22 22 22 22 21 22 20 27 29 30
14 13 12 12 14 14 20 23 25 21 19 19 22 20 19 20 22 23 24 28 29 26 22 18 20 20 24 28 31 25 23 23 23 22 22 20 20 20 21 22 28 29 30
12 11 12 13 12 11 17 21 24 20 18 18 18 19 19 20 24 26 25 28 24 20 21 23 25 28 28 26 24 22 23 23 22 20 21 20 20 21 21 21 22 26 28
12 13 13 11 11 11 15 20 23 19 18 18 18 18 23 22 26 26 26 22 21 19 20 24 23 21 20 20 24 21 24 24 23 21 19 22 22 22 20 19 21 22 23
Lifted_Index
-0 0 1 2 2 2 3 4 7 10 12 13 14 15 16 16 15 15 14 13 13 12 11 11 11 10 10 10 9 8 8 7 7 6 6 5 5 5 5 5 4 4 3
-0 0 1 2 2 2 3 6 9 11 12 14 15 16 16 16 16 15 15 14 14 14 13 13 13 13 12 12 11 11 10 9 9 8 8 7 7 6 6 6 5 5 4
-0 0 1 1 1 3 5 8 10 11 13 14 15 16 17 17 16 16 16 16 16 16 15 16 16 15 15 14 13 13 12 12 11 11 10 10 9 8 8 7 7 7 6
-0 0 0 1 2 5 8 9 10 11 12 14 15 16 17 17 17 17 17 17 17 17 17 17 17 17 17 16 15 14 13 13 13 12 12 11 11 10 9 8 8 8 8
-0 -0 0 2 4 7 9 9 9 10 12 14 15 16 16 16 16 17 17 17 17 18 18 18 18 18 17 17 16 15 14 14 14 13 13 12 12 11 10 9 9 9 8
-0 -0 1 3 7 8 8 8 9 10 12 14 15 16 16 16 16 16 17 18 18 18 18 18 18 18 18 18 17 17 16 15 14 14 14 13 12 12 10 10 10 9 9
-0 0 2 6 8 8 8 8 9 9 11 13 15 15 15 16 16 16 17 18 19 19 19 18 18 18 18 18 18 18 17 16 15 14 14 13 13 12 11 10 10 10 9
0 2 5 8 8 8 8 8 8 9 10 13 14 14 14 14 15 17 18 18 18 18 18 18 18 18 19 19 19 19 18 17 16 15 14 14 13 12 12 11 10 10 10
2 4 7 8 8 8 8 8 8 9 10 12 14 14 14 14 15 16 17 18 18 18 18 18 18 18 19 19 19 19 19 18 17 16 15 14 13 13 12 11 11 10 10
4 6 8 9 8 8 8 8 8 9 10 11 14 15 15 15 15 15 15 17 17 18 18 18 18 18 19 19 20 19 19 19 18 17 16 15 14 13 12 12 11 11 11
6 8 9 9 9 9 9 9 9 9 10 12 14 16 16 16 16 15 14 15 17 17 18 18 19 19 19 20 20 20 19 19 18 17 16 15 14 14 13 13 12 12 12
6 8 9 9 9 9 9 9 9 10 11 13 15 16 16 16 16 16 15 15 16 17 18 19 19 19 20 20 20 20 20 19 18 18 17 16 15 15 15 14 14 14 13
5 7 9 9 9 9 10 10 10 10 12 14 16 17 17 17 18 18 17 16 16 16 18 19 19 19 20 20 20 20 20 20 19 18 17 17 17 17 17 16 16 16 15
5 7 9 9 9 10 10 10 10 11 13 15 16 17 18 18 19 19 18 17 16 16 17 18 19 19 20 20 20 20 20 20 20 19 19 18 18 18 18 18 17 16 16
6 8 9 9 10 10 10 10 10 11 13 16 17 18 18 19 19 19 19 19 17 16 16 18 19 20 20 20 20 20 21 20 20 20 20 20 19 19 18 17 16 15 15
8 8 9 9 10 10 10 11 11 12 14 16 18 18 19 19 19 19 20 20 19 18 17 19 20 20 20 21 21 21 21 21 21 20 20 20 19 18 17 16 14 13 13
9 9 9 9 9 10 10 11 12 13 15 17 18 19 19 19 19 20 21 21 21 20 19 19 20 20 21 21 21 21 21 21 20 20 19 17 17 16 15 14 13 13 12
9 9 9 9 9 10 10 11 12 14 16 17 18 19 19 19 20 20 21 21 21 21 20 20 21 21 21 21 20 20 20 19 18 17 16 15 15 14 14 13 13 13 13
9 9 10 9 9 10 11 12 14 16 17 18 19 19 19 19 20 21 21 21 21 21 21 21 21 21 21 20 20 19 18 17 16 15 15 15 14 14 14 14 14 14 14
9 9 9 9 10 10 12 14 16 18 18 19 19 19 20 20 20 21 21 21 21 21 21 21 21 21 20 19 18 17 16 16 15 15 15 15 15 15 14 14 14 14 14
10 10 10 10 10 11 13 16 18 18 18 19 19 20 20 21 21 21 21 21 21 21 21 21 20 20 19 18 17 16 16 15 14 14 15 15 15 15 15 15 15 15 15
10 10 10 10 11 13 16 18 18 19 19 19 19 20 21 21 21 21 21 21 21 21 20 20 19 18 17 17 16 16 15 14 14 14 15 15 15 15 15 15 15 15 15
10 10 10 11 13 16 17 18 19 19 19 20 20 20 21 21 21 21 21 21 21 20 19 18 18 17 16 16 16 15 15 15 14 15 15 14 14 14 15 15 15 14 14
10 11 12 14 16 17 18 19 20 20 20 20 21 21 21 21 21 21 21 20 20 19 18 17 17 16 16 15 16 15 15 15 15 15 15 15 14 14 14 14 14 13 13
12 13 14 16 17 18 19 20 20 20 21 21 21 21 21 21 21 21 20 20 19 18 17 16 16 16 15 16 16 16 15 15 14 14 15 15 14 14 13 13 13 13 12
13 14 16 17 17 18 19 20 21 21 21 21 21 21 21 21 20 20 20 19 18 17 17 16 15 15 16 16 16 16 16 15 14 13 14 14 14 13 12 12 13 12 12